When you browse on this site, cookies collect data to enhance your experience and personalize the content and advertising you see.
Visit our Privacy Policy to learn more. By continuing to use the site, you agree to this use of cookies and data.
  • In Latvia
  • List of Countries
  • For 7 days
  • Water Temperature
  • Satellite Maps
  • Weather Map
  • Weather Widgets
  • user-avatar
    Login

    Hourly Weather Aleksandrov Gay

    Today, 24 June, Monday

    Time Temperature Precipitation Wind Pressure Humidity
    00:00 +24°C° 0 mm 0 mps 759 mmHg 42%
    01:00 +25°C° 0 mm 1 mps 759 mmHg 42%
    02:00 +25°C° 0 mm 1 mps 760 mmHg 41%
    03:00 +25°C° 0 mm 1 mps 759 mmHg 43%
    04:00 +27°C° 0 mm 1 mps 759 mmHg 41%
    05:00 +28°C° 0 mm 1 mps 760 mmHg 38%
    06:00 +30°C° 0 mm 1 mps 760 mmHg 36%
    07:00 +32°C° 0 mm 1 mps 760 mmHg 33%
    08:00 +33°C° 0 mm 1 mps 760 mmHg 30%
    09:00 +33°C° 0 mm 0 mps 760 mmHg 27%
    10:00 +35°C° 0 mm 1 mps 759 mmHg 25%
    11:00 +36°C° 0 mm 1 mps 759 mmHg 24%
    12:00 +37°C° 0 mm 1 mps 759 mmHg 22%
    13:00 +38°C° 0 mm 2 mps 759 mmHg 22%
    14:00 +38°C° 0 mm 2 mps 759 mmHg 21%
    15:00 +38°C° 0 mm 3 mps 759 mmHg 21%
    16:00 +38°C° 0 mm 4 mps 758 mmHg 24%
    17:00 +37°C° 0 mm 4 mps 758 mmHg 27%
    18:00 +36°C° 0 mm 5 mps 758 mmHg 30%
    19:00 +34°C° 0 mm 4 mps 758 mmHg 33%
    20:00 +32°C° 0 mm 4 mps 758 mmHg 37%
    21:00 +30°C° 0 mm 3 mps 759 mmHg 40%
    22:00 +29°C° 0 mm 3 mps 759 mmHg 43%
    23:00 +28°C° 0 mm 3 mps 758 mmHg 46%

    Tomorrow, 25 June, Tuesday

    Time Temperature Precipitation Wind Pressure Humidity
    00:00 +27°C° 0 mm 3 mps 758 mmHg 48%
    01:00 +26°C° 0 mm 3 mps 758 mmHg 53%
    02:00 +26°C° 0 mm 3 mps 759 mmHg 58%
    03:00 +25°C° 0 mm 3 mps 759 mmHg 63%
    04:00 +25°C° 0 mm 3 mps 759 mmHg 64%
    05:00 +26°C° 0 mm 4 mps 759 mmHg 64%
    06:00 +26°C° 0 mm 4 mps 759 mmHg 64%
    07:00 +27°C° 0 mm 5 mps 759 mmHg 59%
    08:00 +28°C° 0 mm 6 mps 759 mmHg 55%
    09:00 +29°C° 0 mm 6 mps 759 mmHg 51%
    10:00 +29°C° 0 mm 6 mps 759 mmHg 50%
    11:00 +30°C° 0 mm 5 mps 759 mmHg 48%
    12:00 +30°C° 0 mm 5 mps 759 mmHg 47%
    13:00 +32°C° 0 mm 7 mps 759 mmHg 43%
    14:00 +32°C° 0 mm 7 mps 759 mmHg 44%
    15:00 +30°C° 0 mm 7 mps 759 mmHg 45%
    16:00 +30°C° 0 mm 7 mps 759 mmHg 43%
    17:00 +29°C° 0 mm 7 mps 760 mmHg 42%
    18:00 +29°C° 0 mm 7 mps 760 mmHg 40%
    19:00 +27°C° 0 mm 7 mps 760 mmHg 41%
    20:00 +26°C° 0 mm 7 mps 761 mmHg 43%
    21:00 +23°C° 0 mm 7 mps 761 mmHg 44%
    22:00 +22°C° 0 mm 6 mps 761 mmHg 46%
    23:00 +21°C° 0 mm 6 mps 762 mmHg 49%

    Day after tomorrow, 26 June, Wednesday

    Time Temperature Precipitation Wind Pressure Humidity
    00:00 +20°C° 0 mm 5 mps 762 mmHg 51%
    01:00 +19°C° 0 mm 5 mps 762 mmHg 55%
    02:00 +18°C° 0 mm 4 mps 762 mmHg 59%
    03:00 +17°C° 0 mm 3 mps 762 mmHg 63%
    04:00 +18°C° 0 mm 4 mps 762 mmHg 60%
    05:00 +18°C° 0 mm 4 mps 763 mmHg 58%
    06:00 +19°C° 0 mm 4 mps 763 mmHg 56%
    07:00 +21°C° 0 mm 4 mps 763 mmHg 51%
    08:00 +22°C° 0 mm 5 mps 763 mmHg 46%
    09:00 +25°C° 0 mm 5 mps 763 mmHg 41%
    10:00 +25°C° 0 mm 5 mps 762 mmHg 38%
    11:00 +26°C° 0 mm 6 mps 762 mmHg 35%
    12:00 +26°C° 0 mm 6 mps 762 mmHg 32%
    13:00 +26°C° 0 mm 6 mps 762 mmHg 32%
    14:00 +26°C° 0 mm 6 mps 762 mmHg 33%
    15:00 +26°C° 0 mm 6 mps 761 mmHg 33%
    16:00 +24°C° 0 mm 6 mps 761 mmHg 35%
    17:00 +24°C° 0 mm 6 mps 761 mmHg 37%
    18:00 +23°C° 0 mm 6 mps 761 mmHg 38%
    19:00 +22°C° 0 mm 5 mps 761 mmHg 41%
    20:00 +21°C° 0 mm 4 mps 761 mmHg 43%
    21:00 +20°C° 0 mm 3 mps 761 mmHg 46%
    22:00 +19°C° 0 mm 3 mps 761 mmHg 48%
    23:00 +18°C° 0 mm 3 mps 760 mmHg 50%

    27 June, Thursday

    Time Temperature Precipitation Wind Pressure Humidity
    00:00 +18°C° 0 mm 2 mps 760 mmHg 52%
    01:00 +17°C° 0 mm 2 mps 760 mmHg 55%
    02:00 +16°C° 0 mm 2 mps 760 mmHg 58%
    03:00 +15°C° 0 mm 1 mps 759 mmHg 61%
    04:00 +16°C° 0 mm 1 mps 759 mmHg 58%
    05:00 +18°C° 0 mm 1 mps 759 mmHg 55%
    06:00 +20°C° 0 mm 1 mps 759 mmHg 52%
    07:00 +20°C° 0 mm 2 mps 759 mmHg 50%
    08:00 +20°C° 0 mm 3 mps 758 mmHg 49%
    09:00 +21°C° 0 mm 4 mps 758 mmHg 48%
    10:00 +22°C° 0 mm 4 mps 757 mmHg 46%
    11:00 +22°C° 0 mm 4 mps 757 mmHg 45%
    12:00 +23°C° 0 mm 4 mps 757 mmHg 44%
    13:00 +25°C° 0 mm 4 mps 756 mmHg 43%
    14:00 +25°C° 0 mm 5 mps 756 mmHg 41%
    15:00 +26°C° 0 mm 5 mps 755 mmHg 40%
    16:00 +25°C° 0 mm 5 mps 755 mmHg 42%
    17:00 +25°C° 0 mm 5 mps 755 mmHg 44%
    18:00 +25°C° 0 mm 5 mps 754 mmHg 46%
    19:00 +22°C° 0 mm 4 mps 754 mmHg 52%
    20:00 +20°C° 0 mm 3 mps 754 mmHg 57%
    21:00 +19°C° 0 mm 2 mps 754 mmHg 63%
    22:00 +18°C° 0 mm 2 mps 754 mmHg 65%
    23:00 +18°C° 0 mm 2 mps 754 mmHg 67%

    28 June, Friday

    Time Temperature Precipitation Wind Pressure Humidity
    00:00 +17°C° 0 mm 2 mps 753 mmHg 69%
    01:00 +16°C° 0 mm 1 mps 753 mmHg 71%
    02:00 +16°C° 0 mm 1 mps 753 mmHg 74%
    03:00 +15°C° 0 mm 1 mps 753 mmHg 77%
    04:00 +16°C° 0 mm 1 mps 753 mmHg 73%
    05:00 +18°C° 0 mm 1 mps 752 mmHg 69%
    06:00 +19°C° 0 mm 1 mps 752 mmHg 65%
    07:00 +20°C° 0 mm 2 mps 752 mmHg 60%
    08:00 +21°C° 0 mm 2 mps 752 mmHg 56%
    09:00 +22°C° 0 mm 3 mps 751 mmHg 52%
    10:00 +25°C° 0 mm 4 mps 751 mmHg 47%
    11:00 +27°C° 0 mm 4 mps 751 mmHg 43%
    12:00 +29°C° 0 mm 5 mps 750 mmHg 38%
    13:00 +30°C° 0 mm 5 mps 750 mmHg 35%
    14:00 +32°C° 0 mm 5 mps 749 mmHg 31%
    15:00 +33°C° 0 mm 4 mps 748 mmHg 28%
    16:00 +33°C° 0 mm 4 mps 748 mmHg 27%
    17:00 +33°C° 0 mm 3 mps 747 mmHg 27%
    18:00 +33°C° 0 mm 3 mps 747 mmHg 27%
    19:00 +32°C° 0.2 mm 4 mps 747 mmHg 32%
    20:00 +29°C° 0.2 mm 5 mps 746 mmHg 36%
    21:00 +27°C° 0.2 mm 6 mps 746 mmHg 41%
    22:00 +26°C° 0.5 mm 7 mps 746 mmHg 49%
    23:00 +24°C° 0.5 mm 9 mps 746 mmHg 57%

    29 June, Saturday

    Time Temperature Precipitation Wind Pressure Humidity
    00:00 +23°C° 0.5 mm 10 mps 746 mmHg 64%
    01:00 +22°C° 0.8 mm 10 mps 746 mmHg 70%
    02:00 +22°C° 0.8 mm 9 mps 746 mmHg 76%
    03:00 +21°C° 0.8 mm 9 mps 746 mmHg 82%
    04:00 +21°C° 0.4 mm 8 mps 746 mmHg 76%
    05:00 +22°C° 0.4 mm 8 mps 745 mmHg 70%
    06:00 +23°C° 0.4 mm 7 mps 745 mmHg 64%
    07:00 +23°C° 0.1 mm 7 mps 745 mmHg 61%
    08:00 +24°C° 0.1 mm 7 mps 745 mmHg 57%
    09:00 +26°C° 0.1 mm 7 mps 745 mmHg 54%
    10:00 +27°C° 0.2 mm 7 mps 745 mmHg 53%
    11:00 +27°C° 0.2 mm 7 mps 745 mmHg 51%
    12:00 +27°C° 0.2 mm 6 mps 746 mmHg 50%
    13:00 +28°C° 0 mm 7 mps 746 mmHg 43%
    14:00 +29°C° 0 mm 7 mps 746 mmHg 36%
    15:00 +29°C° 0 mm 7 mps 746 mmHg 28%
    16:00 +29°C° 0 mm 7 mps 746 mmHg 30%
    17:00 +28°C° 0 mm 7 mps 746 mmHg 31%
    18:00 +28°C° 0 mm 7 mps 747 mmHg 33%
    19:00 +26°C° 0 mm 6 mps 747 mmHg 36%
    20:00 +23°C° 0 mm 5 mps 748 mmHg 40%
    21:00 +21°C° 0 mm 3 mps 748 mmHg 43%
    22:00 +21°C° 0 mm 3 mps 748 mmHg 46%
    23:00 +20°C° 0 mm 3 mps 748 mmHg 48%
    Show more